Temperature
19 19 19 19 19 19 19 19 19 19 19 19 19 19 19 19 19 19 18 19 19 19 18 19 19 19 18 19 19 18 19 19 19 19 19 18 19 19 19 18 18 18 18
19 19 19 19 19 19 19 19 18 18 18 19 18 18 18 18 18 18 18 18 18 18 18 19 18 18 18 18 18 18 18 19 19 18 18 18 18 18 18 18 18 18 18
19 19 19 19 19 18 18 18 18 18 18 18 18 18 18 18 18 18 18 18 18 18 18 18 18 18 18 18 18 18 18 19 19 18 18 18 18 18 18 18 18 18 18
19 18 19 19 18 18 18 18 18 18 18 18 18 18 18 18 18 18 18 18 18 18 18 18 18 18 18 18 18 18 18 19 18 18 18 18 18 18 18 18 18 18 18
18 18 18 18 18 18 18 18 18 18 18 18 18 18 18 18 18 18 18 18 18 18 18 18 18 18 18 18 18 18 18 18 18 18 18 18 18 18 18 18 18 18 18
18 18 18 18 18 18 18 18 18 18 18 18 17 17 17 17 18 18 18 18 18 18 18 18 18 18 18 18 18 18 18 18 18 18 18 18 18 18 18 18 18 18 18
18 18 18 18 18 18 18 17 17 17 17 17 17 17 17 17 17 18 18 18 18 18 18 18 18 18 18 18 18 18 18 18 18 18 18 18 18 18 18 18 18 18 18
19 18 18 18 18 18 17 17 17 17 17 17 17 17 17 17 17 17 17 18 18 18 18 18 18 18 18 18 18 18 18 18 18 18 18 18 18 18 18 18 18 18 18
19 18 18 18 18 17 17 17 17 17 17 17 17 17 17 17 17 17 17 17 17 17 18 18 18 18 18 18 18 18 18 18 18 18 18 18 18 18 18 18 18 18 18
19 18 18 18 17 17 17 17 17 16 16 16 16 16 16 17 17 17 17 17 17 17 17 17 18 18 18 18 18 18 18 18 18 18 18 18 18 18 18 18 18 18 18
19 19 18 18 18 17 17 17 16 16 16 16 16 16 16 16 16 17 17 16 16 17 17 17 17 17 18 18 18 18 18 18 18 18 18 18 18 18 18 18 18 18 18
19 19 19 18 18 17 17 17 16 16 16 16 16 16 16 16 16 16 16 16 16 16 16 17 17 17 17 18 18 18 18 18 18 18 18 18 18 18 18 18 18 18 18
19 19 19 18 18 17 17 17 16 16 16 16 16 15 16 16 16 16 16 16 16 16 16 16 17 17 17 17 17 18 18 18 18 18 18 18 18 18 18 18 18 18 18
19 19 18 18 18 17 17 16 16 16 16 15 15 15 15 15 15 15 16 16 16 16 16 16 16 16 17 17 17 17 17 18 18 18 18 18 18 18 18 18 18 18 18
19 19 18 18 17 17 16 16 16 16 15 15 15 15 15 15 15 15 15 16 16 16 16 16 16 16 16 17 17 17 17 18 18 18 18 18 18 18 18 18 18 18 18
19 19 18 17 17 16 16 16 16 15 15 15 15 15 15 15 15 15 15 15 15 15 16 16 16 16 16 16 17 17 17 17 17 18 18 18 18 18 18 18 18 18 18
19 19 18 17 16 16 16 15 15 15 15 15 15 15 15 15 15 15 15 15 15 15 15 15 15 16 16 16 16 17 17 17 17 17 17 17 18 18 18 18 18 18 18
19 18 17 17 16 16 15 15 15 15 15 14 14 14 14 14 14 14 14 14 14 15 15 15 15 15 15 16 16 16 17 17 17 17 17 17 18 18 18 18 18 18 18
19 18 17 17 16 15 15 15 15 15 14 14 14 14 14 14 14 14 14 14 14 14 14 15 15 15 15 15 16 16 16 17 17 17 17 17 17 18 18 18 18 18 18
19 18 17 16 16 15 15 15 14 14 14 14 14 13 13 13 13 13 14 14 14 14 14 14 14 15 15 15 15 16 16 16 17 17 17 17 17 18 18 18 18 18 18
19 18 17 17 16 15 15 15 14 14 14 14 14 13 13 13 13 13 13 13 13 13 14 14 14 14 14 15 15 15 16 16 16 17 17 17 17 17 17 17 18 18 18
18 18 17 17 16 15 15 14 14 14 14 14 13 13 13 13 13 13 13 13 13 13 13 14 14 14 14 14 15 15 15 16 16 17 17 17 17 17 17 17 17 17 18
18 18 17 17 16 15 15 14 14 14 14 14 13 13 13 13 13 13 13 13 13 13 13 13 13 14 14 14 14 15 15 15 16 16 17 17 17 17 17 17 17 17 17
18 18 17 16 16 15 15 14 14 14 14 14 13 13 13 13 13 13 13 13 13 13 13 13 13 13 14 14 14 14 15 15 15 16 16 16 17 17 17 17 17 17 17
19 18 17 16 16 15 15 14 14 14 14 14 13 13 13 13 13 13 13 13 13 13 13 13 13 13 13 14 14 14 14 15 15 15 16 16 16 16 17 17 17 17 17
18 17 17 16 15 15 15 14 14 14 14 13 13 13 13 13 13 13 13 13 13 13 13 13 13 13 13 13 14 14 14 14 15 15 15 15 16 16 16 16 17 17 17
Wind_Speed
10 13 13 12 10 10 9 8 8 7 7 6 5 5 5 5 5 5 5 5 5 5 6 6 6 6 6 6 6 6 7 7 6 5 5 4 5 6 7 8 8 7 9
12 14 14 12 11 10 9 8 7 7 7 6 6 5 5 5 4 4 4 4 4 4 4 5 5 5 5 5 5 6 6 5 5 5 4 2 3 5 6 8 10 8 9
13 14 13 12 11 9 8 7 7 6 6 6 5 5 5 5 4 4 4 3 4 4 4 4 4 4 4 4 5 5 5 5 5 7 8 4 3 5 6 7 8 8 8
12 12 12 12 10 9 8 7 6 5 4 4 4 3 3 3 3 3 3 3 4 4 4 4 3 3 3 3 4 4 5 5 7 9 7 1 4 6 6 6 7 7 8
12 13 13 11 10 9 7 7 5 4 4 3 1 1 1 2 2 3 3 3 4 4 4 5 4 4 4 3 3 4 5 6 8 10 7 3 8 7 6 6 6 6 7
12 13 12 11 9 8 7 6 5 4 3 1 1 2 2 2 2 2 3 3 3 4 4 5 5 5 5 4 4 4 5 7 9 8 5 4 8 6 6 5 5 6 6
11 12 12 11 10 8 7 5 4 3 2 0 2 3 4 5 5 5 4 4 4 4 5 5 5 6 6 5 5 5 6 8 10 8 4 5 8 7 5 5 4 5 5
9 9 12 12 10 8 7 5 3 1 0 1 3 4 6 7 7 6 7 7 7 6 6 6 6 6 6 6 6 6 6 8 9 8 3 6 9 8 5 4 4 4 4
6 7 7 9 10 9 8 7 4 2 2 3 4 5 7 8 10 10 10 10 9 8 7 7 7 7 7 7 8 8 8 9 9 9 4 6 10 8 6 4 4 4 4
5 5 5 4 6 7 8 8 6 4 4 5 6 7 9 10 12 13 12 12 11 10 8 8 8 8 7 8 9 9 9 9 10 10 3 7 11 9 6 4 4 3 4
5 4 4 3 4 3 2 6 5 6 7 7 8 10 10 9 9 10 11 11 12 11 10 10 10 10 9 9 10 10 9 9 10 7 4 9 12 9 7 5 4 4 4
4 4 5 4 3 3 3 3 1 0 3 5 4 4 6 6 5 5 7 10 12 12 12 12 12 10 9 8 10 11 8 11 10 6 7 14 12 10 7 5 5 5 6
5 5 4 4 3 3 2 2 2 2 1 2 3 3 3 3 3 3 3 6 9 11 9 10 10 8 7 6 4 6 8 8 6 3 8 14 12 10 7 6 6 6 7
6 5 4 4 4 4 4 2 1 0 1 1 3 5 2 1 2 1 1 2 3 5 4 4 4 5 6 6 5 5 6 5 4 3 8 13 12 10 8 7 7 7 8
6 4 5 4 6 4 3 2 2 1 1 2 2 5 3 2 3 3 2 1 2 3 3 4 4 4 4 4 4 5 5 4 4 4 7 12 12 11 10 9 8 8 9
5 5 6 5 5 4 4 3 3 2 0 2 2 5 4 2 3 2 3 2 2 2 2 2 4 3 3 3 4 4 4 4 4 4 7 10 12 12 11 10 10 10 10
5 6 6 3 4 5 5 5 3 2 2 2 2 6 6 4 3 3 3 3 3 3 2 2 2 2 3 4 4 5 4 4 4 3 5 8 10 13 13 12 11 11 10
5 6 5 3 4 5 4 4 3 2 3 2 3 4 7 6 5 2 3 3 3 3 2 2 1 1 2 2 2 4 4 3 4 4 4 6 9 10 12 14 12 12 11
5 5 5 5 3 4 2 2 2 2 2 1 2 3 5 7 7 3 3 3 3 2 3 3 1 1 2 2 3 4 4 3 4 5 5 4 6 9 10 14 15 13 13
4 4 6 4 2 3 2 3 2 2 3 2 2 2 4 5 6 4 4 3 3 2 2 3 2 2 2 2 4 4 3 4 3 3 4 3 3 6 8 10 12 12 14
5 4 5 3 3 3 3 2 2 2 2 2 2 2 3 4 5 4 4 3 3 2 3 3 2 3 2 1 1 2 3 3 3 4 3 2 3 3 5 8 9 9 11
5 3 3 4 4 4 2 1 1 2 2 1 1 2 3 4 3 5 4 3 2 2 2 3 2 1 2 1 1 1 1 1 3 4 3 3 3 2 3 6 8 9 11
5 4 3 3 4 4 2 1 2 2 2 1 2 2 2 2 2 3 4 4 3 2 1 3 1 1 1 2 0 1 1 1 2 2 3 3 3 2 2 3 4 7 10
6 5 4 4 3 4 3 2 2 2 2 2 2 1 3 1 2 2 4 4 3 2 2 3 1 1 1 1 1 1 1 0 1 1 2 2 3 3 3 3 2 1 3
7 5 3 4 4 4 3 2 2 2 2 2 2 2 3 2 2 2 3 4 3 2 2 2 2 1 0 0 1 1 1 1 1 0 1 2 2 2 2 1 1 0 0
7 6 3 4 4 4 1 1 1 1 2 3 3 3 3 1 1 2 3 3 3 3 2 2 2 1 0 0 1 1 0 0 1 0 0 1 1 2 1 1 1 2 1
Wind_Direction
108 113 116 114 111 104 97 91 87 83 78 70 63 60 60 58 53 44 40 36 35 32 27 25 24 25 27 27 26 24 24 20 21 18 25 43 51 47 38 28 25 54 52
111 112 110 108 105 101 95 89 87 81 73 65 56 46 39 39 36 28 25 20 17 20 20 18 15 18 22 21 18 16 14 9 359 340 329 335 71 61 47 42 48 57 51
107 109 105 102 99 96 94 92 88 83 75 66 56 46 35 27 21 12 1 358 354 354 357 360 358 4 7 11 9 6 2 349 329 316 303 278 130 82 59 51 53 57 53
102 105 103 101 98 93 90 89 86 82 73 66 56 44 32 18 5 359 349 341 335 330 327 330 331 333 338 348 353 352 346 330 314 309 304 298 114 94 72 58 56 59 56
99 101 101 101 97 92 87 83 80 78 68 64 50 11 345 340 342 345 334 334 330 319 311 312 311 306 307 312 320 327 326 315 309 303 305 70 97 100 84 66 61 65 63
107 107 110 107 103 97 89 83 75 70 63 46 260 245 259 283 296 304 299 308 314 315 312 312 307 298 293 294 294 298 306 308 305 298 299 88 105 104 92 76 69 70 70
111 116 122 121 117 112 102 92 79 69 63 306 258 248 246 254 262 261 257 266 277 289 303 304 298 296 288 284 280 281 288 297 287 284 279 115 119 118 103 91 81 79 80
109 118 126 136 137 136 129 118 99 87 231 266 264 257 253 252 252 255 247 249 256 263 277 288 289 288 285 277 268 266 273 284 294 297 252 141 135 127 116 105 95 94 94
102 108 125 142 146 146 138 132 136 161 223 246 250 249 250 247 249 248 243 244 247 251 259 267 277 281 278 270 257 253 261 270 282 284 276 141 141 136 128 120 115 110 108
106 103 107 116 118 137 150 153 163 184 208 230 239 241 246 250 247 245 240 238 239 241 247 255 263 270 271 266 253 245 249 262 261 268 242 147 145 140 136 138 138 132 130
110 114 114 99 100 112 162 150 182 201 207 228 234 233 239 247 244 238 230 226 228 233 239 245 252 255 259 257 248 239 240 245 251 244 185 155 149 143 142 148 154 156 150
114 84 78 73 87 75 25 86 64 261 197 239 253 233 234 253 259 251 216 222 228 233 237 241 246 248 248 246 239 230 233 239 250 239 177 156 152 148 150 161 169 169 165
101 77 65 51 56 66 62 52 24 310 290 299 326 310 286 295 281 249 205 217 226 230 231 236 236 233 232 234 223 215 231 243 239 228 165 158 156 157 162 175 180 179 175
93 69 54 32 45 47 57 15 249 16 21 355 354 336 340 322 302 284 244 213 217 225 214 223 220 226 231 235 227 216 231 240 244 187 166 163 163 164 172 183 187 188 186
109 102 73 33 35 27 55 304 4 46 11 359 357 324 350 344 319 318 278 250 246 244 214 218 222 231 241 245 242 228 234 244 243 216 168 171 172 173 181 189 193 192 191
109 93 80 44 38 18 17 2 23 4 2 12 6 328 346 337 300 315 311 303 282 274 254 228 222 221 244 243 246 254 251 244 242 221 178 182 186 185 187 192 194 193 193
100 91 85 58 41 36 23 2 360 343 18 14 9 343 346 347 335 330 328 324 312 299 284 276 272 233 245 243 240 249 253 247 250 242 193 189 191 194 193 195 194 193 192
96 88 86 51 43 48 33 343 342 5 13 357 9 0 345 346 351 334 332 318 306 320 313 284 258 259 259 256 257 262 255 242 243 254 233 203 186 189 195 197 195 195 193
109 111 102 74 43 54 24 311 2 12 345 346 15 20 350 344 349 349 319 299 316 328 324 305 319 293 270 263 254 243 247 241 241 250 251 227 196 183 184 194 195 194 193
123 117 106 109 87 63 36 359 24 10 342 5 15 30 354 336 347 337 309 322 332 330 319 311 312 305 272 251 268 263 244 231 235 245 257 248 207 186 182 180 187 195 195
138 118 114 113 101 84 57 3 358 347 326 1 352 23 342 345 349 321 324 327 331 324 312 308 309 307 295 266 275 287 270 239 237 241 244 258 235 193 176 174 181 185 192
144 131 126 107 90 87 83 351 312 350 324 355 333 351 350 353 348 330 336 325 317 294 301 298 293 286 289 283 207 253 284 291 265 241 234 244 242 193 183 189 193 185 186
152 143 131 115 118 105 99 41 2 348 301 341 350 25 341 338 346 338 329 323 313 312 302 287 284 285 275 286 271 175 203 238 276 263 232 233 237 212 216 219 213 194 184
152 140 144 128 112 101 92 66 333 304 2 3 352 10 314 359 7 352 328 321 315 324 320 307 334 291 257 287 301 291 286 216 203 289 289 243 231 217 216 236 244 205 199
139 132 132 120 107 95 84 113 288 352 8 354 344 5 336 27 1 5 336 325 330 337 341 324 325 303 282 242 279 295 308 309 278 205 284 300 286 247 210 193 203 204 357
123 125 129 124 112 111 137 195 203 28 2 340 351 2 331 336 359 23 343 336 346 350 346 343 331 329 12 286 281 280 262 281 278 279 253 301 284 293 252 190 192 168 152
Height
1503 1503 1504 1506 1507 1508 1509 1511 1512 1513 1514 1515 1516 1517 1518 1519 1520 1520 1521 1521 1522 1522 1522 1523 1523 1523 1523 1523 1523 1523 1523 1523 1523 1523 1523 1523 1523 1523 1523 1522 1522 1521 1520
1503 1503 1505 1506 1507 1508 1510 1511 1512 1513 1514 1515 1516 1517 1518 1519 1519 1520 1521 1521 1522 1522 1523 1523 1523 1523 1523 1523 1524 1524 1524 1524 1524 1524 1524 1524 1524 1524 1524 1523 1523 1522 1521
1503 1504 1505 1507 1507 1509 1510 1511 1512 1513 1514 1515 1516 1517 1518 1518 1519 1520 1520 1521 1522 1522 1523 1523 1523 1523 1523 1523 1524 1524 1524 1525 1525 1525 1525 1525 1525 1525 1525 1524 1523 1523 1522
1504 1505 1506 1507 1508 1509 1510 1510 1511 1512 1513 1514 1515 1516 1517 1518 1518 1519 1520 1520 1521 1522 1522 1522 1523 1523 1523 1523 1524 1524 1524 1525 1525 1525 1525 1525 1525 1525 1525 1525 1524 1524 1523
1505 1506 1506 1507 1508 1509 1509 1510 1511 1511 1512 1513 1514 1515 1516 1517 1517 1518 1519 1519 1520 1521 1521 1522 1522 1522 1523 1523 1523 1524 1524 1525 1525 1525 1526 1526 1526 1526 1525 1525 1525 1525 1524
1506 1506 1507 1507 1508 1508 1509 1509 1509 1510 1510 1511 1512 1513 1514 1515 1515 1516 1517 1518 1518 1519 1520 1520 1521 1521 1522 1522 1523 1523 1524 1525 1525 1525 1526 1526 1526 1526 1526 1526 1526 1526 1525
1507 1507 1507 1508 1508 1508 1508 1508 1508 1509 1509 1509 1510 1511 1511 1512 1513 1514 1515 1516 1516 1517 1518 1519 1519 1520 1520 1521 1521 1522 1523 1524 1524 1525 1526 1526 1526 1526 1526 1526 1526 1526 1526
1508 1508 1508 1508 1508 1508 1508 1508 1508 1508 1508 1508 1508 1508 1509 1510 1510 1511 1512 1513 1514 1515 1516 1517 1517 1518 1519 1519 1520 1521 1522 1523 1523 1524 1525 1525 1526 1526 1526 1526 1526 1527 1527
1509 1509 1509 1509 1508 1508 1508 1507 1507 1506 1506 1506 1506 1506 1507 1507 1508 1509 1509 1510 1511 1512 1513 1514 1515 1516 1517 1517 1518 1519 1520 1521 1522 1523 1524 1524 1525 1525 1525 1526 1527 1527 1528
1509 1510 1510 1510 1509 1508 1507 1507 1506 1506 1505 1505 1505 1505 1505 1505 1506 1506 1507 1507 1508 1509 1510 1511 1512 1513 1514 1515 1516 1517 1518 1519 1520 1521 1523 1523 1524 1525 1525 1526 1526 1527 1528
1509 1510 1510 1510 1509 1508 1508 1507 1506 1505 1505 1504 1504 1504 1504 1504 1504 1504 1505 1505 1505 1506 1507 1508 1509 1511 1512 1513 1514 1515 1516 1517 1518 1520 1521 1522 1523 1524 1524 1525 1526 1527 1528
1509 1510 1510 1509 1509 1508 1508 1507 1506 1505 1505 1504 1504 1504 1504 1503 1503 1504 1503 1503 1504 1504 1505 1505 1507 1507 1509 1510 1511 1513 1514 1515 1517 1518 1519 1520 1522 1522 1523 1524 1525 1526 1527
1509 1509 1509 1509 1508 1508 1507 1506 1505 1505 1505 1504 1504 1503 1503 1503 1502 1502 1502 1502 1502 1502 1502 1503 1504 1504 1506 1507 1509 1510 1511 1513 1515 1516 1517 1519 1520 1521 1522 1523 1524 1525 1526
1508 1509 1509 1509 1508 1507 1506 1505 1505 1504 1504 1503 1503 1502 1502 1501 1501 1501 1501 1501 1500 1501 1501 1501 1502 1502 1503 1505 1506 1507 1509 1511 1513 1514 1515 1517 1518 1519 1520 1521 1523 1524 1525
1507 1508 1508 1508 1507 1506 1505 1504 1504 1503 1503 1502 1501 1501 1500 1500 1500 1499 1499 1499 1499 1499 1499 1499 1500 1500 1501 1502 1503 1505 1506 1508 1510 1512 1513 1514 1516 1517 1518 1520 1521 1522 1524
1506 1507 1506 1507 1506 1505 1504 1504 1503 1502 1502 1501 1500 1500 1499 1499 1498 1498 1497 1497 1497 1497 1498 1498 1498 1498 1498 1499 1501 1502 1504 1505 1507 1509 1510 1512 1513 1515 1516 1518 1519 1521 1522
1505 1506 1505 1506 1505 1504 1503 1502 1502 1501 1500 1500 1499 1498 1498 1497 1497 1496 1495 1495 1495 1495 1496 1496 1496 1496 1496 1497 1498 1500 1501 1502 1504 1506 1508 1509 1511 1512 1514 1516 1517 1519 1521
1504 1505 1504 1505 1504 1503 1502 1501 1501 1500 1499 1498 1498 1497 1496 1495 1495 1494 1493 1493 1493 1493 1493 1493 1494 1494 1494 1495 1495 1497 1498 1500 1501 1503 1505 1506 1508 1510 1512 1514 1515 1517 1519
1504 1504 1504 1503 1503 1502 1501 1500 1499 1499 1498 1497 1496 1495 1494 1493 1493 1492 1491 1491 1491 1491 1491 1491 1492 1492 1492 1493 1493 1494 1496 1497 1499 1501 1503 1504 1505 1507 1509 1511 1513 1515 1517
1503 1503 1502 1502 1502 1501 1500 1499 1498 1498 1497 1496 1495 1494 1493 1492 1491 1490 1490 1489 1489 1489 1489 1489 1489 1490 1490 1491 1491 1492 1493 1495 1496 1498 1500 1501 1503 1504 1506 1508 1511 1513 1515
1501 1502 1501 1501 1501 1500 1499 1498 1497 1497 1496 1495 1494 1493 1492 1491 1489 1489 1488 1487 1487 1487 1487 1487 1487 1487 1488 1489 1490 1490 1491 1492 1493 1495 1497 1498 1500 1502 1504 1506 1508 1510 1512
1500 1501 1501 1500 1500 1499 1498 1497 1497 1496 1495 1494 1493 1492 1491 1490 1488 1487 1487 1486 1486 1485 1485 1485 1486 1486 1486 1487 1488 1488 1489 1491 1491 1493 1494 1496 1498 1500 1502 1504 1506 1507 1510
1498 1499 1500 1499 1499 1498 1497 1496 1496 1495 1494 1493 1492 1491 1490 1489 1488 1486 1485 1485 1485 1484 1484 1484 1484 1485 1485 1486 1487 1488 1489 1489 1490 1491 1492 1494 1496 1498 1499 1502 1504 1505 1507
1496 1497 1498 1498 1498 1497 1496 1495 1495 1495 1494 1493 1492 1490 1489 1488 1487 1486 1485 1484 1484 1483 1483 1483 1483 1484 1484 1485 1486 1487 1488 1488 1489 1490 1491 1492 1494 1495 1497 1499 1501 1503 1504
1494 1495 1496 1496 1496 1495 1495 1494 1494 1494 1493 1492 1491 1490 1489 1488 1486 1485 1484 1483 1483 1482 1482 1482 1482 1483 1483 1484 1485 1486 1487 1487 1488 1489 1489 1491 1492 1494 1495 1497 1498 1500 1502
1492 1493 1495 1495 1495 1494 1494 1494 1494 1493 1493 1492 1491 1490 1489 1488 1486 1485 1484 1483 1482 1482 1481 1481 1481 1482 1482 1483 1484 1485 1485 1486 1487 1488 1488 1489 1490 1492 1493 1494 1496 1498 1499